Owosso, MI

9:51 PM EDT on August 22, 2017 (GMT -0400)
Owosso

Weather History for KRNP - December, 2012

Change the Weather History Date:

Thursday, December 13, 2012

  Actual Average (KFNT) Record (KFNT)
Temperature  
Mean Temperature 39 °F -  
Max Temperature 47 °F 35 °F 65 °F (2015)
Min Temperature 31 °F 22 °F -3 °F (1960)
Degree Days  
Heating Degree Days 26    
Moisture  
Dew Point 23 °F    
Average Humidity 58    
Maximum Humidity 74    
Minimum Humidity 31    
Precipitation  
Precipitation 0.00 in - - ()
Sea Level Pressure  
Sea Level Pressure 30.24 in    
Wind  
Wind Speed 8 mph (South)    
Max Wind Speed 16 mph    
Max Gust Speed 22 mph    
Visibility 10 miles    
Events      
Averages and records for this station are not official NWS values.
T = Trace of Precipitation, MM = Missing Value Source: NWS Daily Summary

Daily Weather History Graph

Daily Weather History Graph

Search for Another Location

Airport or City:

Trip Planner

Search our weather history database for the weather conditions in past years. The results will help you decide how hot, cold, wet, or windy it might be!

Date:

Astronomy

Dec. 13, 2012 Rise Set
Actual Time 7:59 AM EST 5:02 PM EST
Civil Twilight 7:27 AM EST 5:34 PM EST
Nautical Twilight 6:51 AM EST 6:10 PM EST
Astronomical Twilight 6:17 AM EST 6:44 PM EST
Moon 8:06 AM EST (12/13) 5:44 PM EST (12/13)
Length of Visible Light 10h 07m
Length of Day
9h 02m
New Moon, 0% of the Moon is Illuminated
Dec 13
New Moon
Dec 20
First Quarter
Dec 28
Full
Jan 4
Last Quarter
Jan 11
New

Hourly Weather History & Observations

Time (EST) Temp. Windchill Dew Point Humidity Pressure Visibility Wind Dir Wind Speed Gust Speed Precip Events Conditions
12:15 AM 32.9 °F 28.5 °F 23.9 °F 69% 30.32 in 10.0 mi South 4.6 mph - N/A   Clear
12:35 AM 32.2 °F 26.7 °F 24.3 °F 73% 30.32 in 10.0 mi South 5.8 mph - N/A   Clear
12:55 AM 32.4 °F 29.1 °F 24.3 °F 72% 30.31 in 10.0 mi South 3.5 mph - N/A   Clear
1:15 AM 32.9 °F 25.9 °F 24.4 °F 71% 30.31 in 10.0 mi South 8.1 mph - N/A   Clear
1:34 AM 32.9 °F 26.7 °F 24.4 °F 71% 30.31 in 10.0 mi South 6.9 mph - N/A   Clear
1:55 AM 32.2 °F 27.7 °F 24.3 °F 73% 30.31 in 10.0 mi South 4.6 mph - N/A   Clear
2:15 AM 32.0 °F 27.5 °F 24.3 °F 73% 30.32 in 10.0 mi South 4.6 mph - N/A   Clear
2:35 AM 32.0 °F 26.4 °F 23.9 °F 72% 30.32 in 10.0 mi South 5.8 mph - N/A   Clear
2:55 AM 32.0 °F 26.4 °F 24.1 °F 73% 30.32 in 10.0 mi South 5.8 mph - N/A   Clear
3:15 AM 32.0 °F 25.6 °F 23.9 °F 72% 30.31 in 10.0 mi South 6.9 mph - N/A   Clear
3:35 AM 32.2 °F 25.8 °F 23.9 °F 72% 30.31 in 10.0 mi South 6.9 mph - N/A   Clear
3:55 AM 32.0 °F 27.5 °F 23.9 °F 72% 30.31 in 10.0 mi South 4.6 mph - N/A   Clear
4:15 AM 32.2 °F 25.8 °F 23.9 °F 72% 30.31 in 10.0 mi South 6.9 mph - N/A   Clear
4:35 AM 32.4 °F 26.0 °F 23.7 °F 70% 30.30 in 10.0 mi South 6.9 mph - N/A   Clear
4:55 AM 32.5 °F 25.5 °F 23.9 °F 70% 30.30 in 10.0 mi South 8.1 mph - N/A   Clear
5:14 AM 32.4 °F 26.0 °F 23.5 °F 70% 30.31 in 10.0 mi South 6.9 mph - N/A   Clear
5:35 AM 32.0 °F 26.4 °F 23.5 °F 71% 30.31 in 10.0 mi South 5.8 mph - N/A   Clear
5:55 AM 32.0 °F 26.4 °F 23.5 °F 71% 30.30 in 10.0 mi South 5.8 mph - N/A   Clear
6:15 AM 31.8 °F 25.4 °F 23.5 °F 71% 30.30 in 10.0 mi SSW 6.9 mph - N/A   Clear
6:35 AM 32.0 °F 26.4 °F 23.5 °F 71% 30.30 in 10.0 mi SSW 5.8 mph - N/A   Clear
6:54 AM 31.8 °F 24.6 °F 23.5 °F 71% 30.31 in 10.0 mi South 8.1 mph - N/A   Clear
7:15 AM 31.1 °F 24.5 °F 23.5 °F 74% 30.31 in 10.0 mi South 6.9 mph - N/A   Clear
7:35 AM 31.5 °F 24.2 °F 23.5 °F 73% 30.31 in 10.0 mi South 8.1 mph - N/A   Clear
7:55 AM 31.5 °F 24.2 °F 23.5 °F 73% 30.31 in 10.0 mi South 8.1 mph - N/A   Clear
8:15 AM 31.8 °F 24.6 °F 23.5 °F 71% 30.30 in 10.0 mi South 8.1 mph - N/A   Clear
8:35 AM 32.0 °F 23.6 °F 23.7 °F 71% 30.30 in 10.0 mi South 10.4 mph - N/A   Clear
8:55 AM 32.9 °F 24.7 °F 23.9 °F 69% 30.30 in 10.0 mi South 10.4 mph - N/A   Clear
9:15 AM 33.8 °F 25.8 °F 23.9 °F 67% 30.30 in 10.0 mi South 10.4 mph - N/A   Clear
9:35 AM 34.7 °F 26.4 °F 24.1 °F 65% 30.30 in 10.0 mi South 11.5 mph 17.3 mph N/A   Clear
9:55 AM 35.6 °F 27.5 °F 24.1 °F 63% 30.30 in 10.0 mi South 11.5 mph 16.1 mph N/A   Clear
10:15 AM 36.1 °F 28.2 °F 24.1 °F 62% 30.29 in 10.0 mi South 11.5 mph - N/A   Clear
10:35 AM 37.2 °F 30.0 °F 24.6 °F 60% 30.29 in 10.0 mi South 10.4 mph 17.3 mph N/A   Clear
10:55 AM 38.3 °F 30.9 °F 24.6 °F 58% 30.29 in 10.0 mi South 11.5 mph - N/A   Clear
11:15 AM 39.4 °F 32.7 °F 24.8 °F 56% 30.28 in 10.0 mi South 10.4 mph - N/A   Clear
11:35 AM 41.0 °F 35.2 °F 24.4 °F 52% 30.27 in 10.0 mi South 9.2 mph 16.1 mph N/A   Clear
11:55 AM 42.4 °F 37.5 °F 24.1 °F 48% 30.26 in 10.0 mi South 8.1 mph - N/A   Clear
12:15 PM 44.1 °F 38.6 °F 23.2 °F 44% 30.25 in 10.0 mi SSW 10.4 mph 16.1 mph N/A   Clear
12:35 PM 44.8 °F 39.0 °F 21.7 °F 40% 30.24 in 10.0 mi South 11.5 mph 18.4 mph N/A   Clear
12:55 PM 46.0 °F 39.3 °F 20.7 °F 37% 30.23 in 10.0 mi South 16.1 mph - N/A   Clear
1:15 PM 46.4 °F 40.7 °F 20.5 °F 36% 30.22 in 10.0 mi South 12.7 mph 16.1 mph N/A   Clear
1:35 PM 46.6 °F - 19.9 °F 35% 30.21 in 10.0 mi SSW 11.5 mph 17.3 mph N/A   Clear
1:55 PM 46.6 °F - 19.8 °F 34% 30.20 in 10.0 mi South 12.7 mph 20.7 mph N/A   Clear
2:15 PM 47.3 °F - 18.9 °F 32% 30.19 in 10.0 mi SSW 15.0 mph - N/A   Clear
2:35 PM 47.7 °F - 18.5 °F 31% 30.17 in 10.0 mi South 12.7 mph 21.9 mph N/A   Clear
2:55 PM 47.3 °F - 18.5 °F 32% 30.17 in 10.0 mi South 13.8 mph 18.4 mph N/A   Clear
3:15 PM 47.3 °F - 18.5 °F 32% 30.17 in 10.0 mi South 13.8 mph - N/A   Clear
3:34 PM 45.7 °F 38.8 °F 18.5 °F 34% 30.16 in 10.0 mi South 16.1 mph 19.6 mph N/A   Clear
3:55 PM 46.0 °F 39.9 °F 18.1 °F 33% 30.15 in 10.0 mi South 13.8 mph 20.7 mph N/A   Clear
4:15 PM 46.2 °F 41.2 °F 16.9 °F 31% 30.15 in 10.0 mi SSW 10.4 mph 17.3 mph N/A   Clear
4:35 PM 44.8 °F 39.9 °F 17.4 °F 33% 30.15 in 10.0 mi South 9.2 mph - N/A   Clear
4:55 PM 43.7 °F 38.6 °F 17.2 °F 35% 30.15 in 10.0 mi South 9.2 mph - N/A   Clear
5:35 PM 41.9 °F 40.0 °F 17.4 °F 37% 30.14 in 10.0 mi South 3.5 mph - N/A   Clear
8:15 PM 39.2 °F 31.6 °F 24.3 °F 55% 30.12 in 10.0 mi South 12.7 mph - N/A   Clear
8:35 PM 39.0 °F 31.4 °F 24.1 °F 55% 30.12 in 10.0 mi South 12.7 mph 21.9 mph N/A   Clear
8:55 PM 38.7 °F 30.9 °F 24.3 °F 56% 30.12 in 10.0 mi South 12.7 mph 18.4 mph N/A   Clear
9:15 PM 38.3 °F 30.9 °F 24.6 °F 58% 30.12 in 10.0 mi South 11.5 mph - N/A   Clear
9:35 PM 37.8 °F 31.3 °F 24.8 °F 60% 30.12 in 10.0 mi SSW 9.2 mph - N/A   Clear
9:55 PM 37.4 °F 32.1 °F 24.4 °F 60% 30.13 in 10.0 mi SSW 6.9 mph - N/A   Clear
10:15 PM 37.0 °F 31.6 °F 24.3 °F 60% 30.14 in 10.0 mi SSW 6.9 mph - N/A   Clear
10:35 PM 36.5 °F 31.8 °F 23.9 °F 60% 30.13 in 10.0 mi SSW 5.8 mph - N/A   Clear
10:55 PM 36.7 °F 31.2 °F 23.5 °F 59% 30.13 in 10.0 mi SSW 6.9 mph - N/A   Clear
11:15 PM 36.9 °F 31.4 °F 23.0 °F 57% 30.13 in 10.0 mi SSW 6.9 mph - N/A   Clear
11:35 PM 37.6 °F 32.3 °F 22.8 °F 55% 30.14 in 10.0 mi SW 6.9 mph - N/A   Clear
11:55 PM 37.2 °F 31.9 °F 22.8 °F 56% 30.13 in 10.0 mi SSW 6.9 mph - N/A   Clear